KE7YUP Weather Reports


Display with metric or nautical units.
time (UTC)temp
F
wind
direction
speed
MPH
gust
MPH
rain 1hr
in
rain 24hr
in
rain mn
in
humidity
%
barometer
mb
20260510194416 72 92 1.0 3.0 0.00 0.00 0.00 19 1025.6
20260510193416 72 117 1.0 4.0 0.00 0.00 0.00 19 1025.8
20260510192416 72 116 7.0 9.0 0.00 0.00 0.00 20 1025.9
20260510191416 72 184 3.0 6.0 0.00 0.00 0.00 18 1025.9
20260510190436 72 148 5.0 8.0 0.00 0.00 0.00 20 1025.8
20260510185416 71 56 0.0 1.0 0.00 0.00 0.00 19 1025.8
20260510184415 70 131 7.0 10.0 0.00 0.00 0.00 21 1025.9
20260510183416 70 85 6.0 10.0 0.00 0.00 0.00 21 1026.1
20260510182415 70 68 4.0 10.0 0.00 0.00 0.00 21 1025.8
20260510181416 69 112 7.0 9.0 0.00 0.00 0.00 22 1026.2
20260510180436 69 124 3.0 9.0 0.00 0.00 0.00 25 1026.4
20260510175416 68 105 3.0 10.0 0.00 0.00 0.00 25 1026.0
20260510174456 68 144 4.0 8.0 0.00 0.00 0.00 27 1026.4
20260510173415 68 156 7.0 11.0 0.00 0.00 0.00 29 1026.5
20260510172415 68 157 4.0 7.0 0.00 0.00 0.00 28 1026.5
20260510171456 67 107 4.0 9.0 0.00 0.00 0.00 30 1026.2
20260510170415 65 82 2.0 3.0 0.00 0.00 0.00 32 1025.9
20260510165416 66 149 5.0 7.0 0.00 0.00 0.00 33 1025.9
20260510164415 66 91 6.0 11.0 0.00 0.00 0.00 33 1026.2
20260510163415 65 111 5.0 8.0 0.00 0.00 0.00 35 1025.9
20260510162415 66 148 4.0 8.0 0.00 0.00 0.00 31 1026.1
20260510161415 65 174 0.0 2.0 0.00 0.00 0.00 27 1026.0
20260510160416 65 138 2.0 3.0 0.00 0.00 0.00 27 1026.0
20260510155415 64 147 3.0 6.0 0.00 0.00 0.00 27 1025.7
20260510154435 63 275 0.0 2.0 0.00 0.00 0.00 27 1025.7
20260510153415 63 168 2.0 4.0 0.00 0.00 0.00 27 1025.9
20260510152415 62 238 1.0 2.0 0.00 0.00 0.00 30 1025.9
20260510151415 61 115 2.0 3.0 0.00 0.00 0.00 32 1026.2
20260510150415 60 167 2.0 5.0 0.00 0.00 0.00 34 1025.9
20260510145435 59 216 2.0 4.0 0.00 0.00 0.00 36 1025.8
20260510144415 59 163 1.0 2.0 0.00 0.00 0.00 36 1025.7
20260510143436 58 158 1.0 2.0 0.00 0.00 0.00 35 1025.7
20260510142416 58 0.0 0.0 0.00 0.00 0.00 36 1025.6
20260510141458 58 134 3.0 7.0 0.00 0.00 0.00 34 1025.5
20260510140416 58 30 1.0 3.0 0.00 0.00 0.00 36 1025.4
20260510135415 56 70 2.0 3.0 0.00 0.00 0.00 41 1025.1
20260510134457 55 70 1.0 2.0 0.00 0.00 0.00 44 1025.5
20260510133416 54 70 2.0 3.0 0.00 0.00 0.00 41 1025.1
20260510132416 52 70 3.0 4.0 0.00 0.00 0.00 40 1024.5
20260510131416 50 0.0 0.0 0.00 0.00 0.00 41 1024.0
20260510130457 49 0.0 0.0 0.00 0.00 0.00 41 1023.7
20260510125436 50 342 0.0 1.0 0.00 0.00 0.00 41 1023.7
20260510124418 51 342 4.0 6.0 0.00 0.00 0.00 36 1023.8
20260510123438 51 342 0.0 1.0 0.00 0.00 0.00 38 1023.7
20260510122417 51 342 0.0 1.0 0.00 0.00 0.00 38 1023.5
20260510121417 52 342 4.0 5.0 0.00 0.00 0.00 38 1023.8
20260510120417 51 342 4.0 5.0 0.00 0.00 0.00 37 1023.6
20260510115417 51 342 4.0 5.0 0.00 0.00 0.00 35 1023.5
20260510114417 52 342 3.0 4.0 0.00 0.00 0.00 32 1023.3
20260510113457 53 342 3.0 5.0 0.00 0.00 0.00 31 1023.5
20260510112417 52 342 4.0 5.0 0.00 0.00 0.00 33 1023.1
20260510111417 51 342 4.0 6.0 0.00 0.00 0.00 33 1023.1
20260510110437 52 342 4.0 5.0 0.00 0.00 0.00 33 1023.2
20260510105417 52 342 3.0 4.0 0.00 0.00 0.00 33 1023.0
20260510104416 52 342 4.0 5.0 0.00 0.00 0.00 33 1023.2
20260510103417 51 342 1.0 2.0 0.00 0.00 0.00 33 1022.9
20260510102416 51 342 1.0 2.0 0.00 0.00 0.00 34 1022.9
20260510101417 51 342 3.0 4.0 0.00 0.00 0.00 34 1022.8
20260510100416 52 342 4.0 5.0 0.00 0.00 0.00 34 1022.8
20260510095416 51 342 4.0 6.0 0.00 0.00 0.00 34 1022.6
20260510094416 51 342 3.0 4.0 0.00 0.00 0.00 33 1022.6
20260510093416 52 342 4.0 5.0 0.00 0.00 0.00 32 1022.5
20260510092416 51 342 3.0 5.0 0.00 0.00 0.00 34 1022.1
20260510091416 51 342 3.0 4.0 0.00 0.00 0.00 34 1022.4
20260510090417 52 342 2.0 3.0 0.00 0.00 0.00 32 1022.6
20260510085416 53 342 2.0 4.0 0.00 0.00 0.00 31 1022.5
20260510084417 53 333 1.0 3.0 0.00 0.00 0.00 30 1022.4
20260510083416 55 333 0.0 1.0 0.00 0.00 0.00 29 1022.4
20260510082437 55 356 2.0 8.0 0.00 0.00 0.00 28 1022.4
20260510081416 58 245 1.0 3.0 0.00 0.00 0.00 26 1022.5
20260510080457 60 207 0.0 1.0 0.00 0.00 0.00 23 1023.1
20260510075416 62 343 8.0 12.0 0.00 0.00 0.00 20 1023.2
20260510074416 61 355 8.0 11.0 0.00 0.00 0.00 21 1022.8
20260510073416 61 349 7.0 10.0 0.00 0.00 0.00 21 1022.9
20260510072416 60 332 6.0 9.0 0.00 0.00 0.00 22 1022.9
20260510071416 59 321 6.0 10.0 0.00 0.00 0.00 24 1022.5
20260510070416 57 315 8.0 11.0 0.00 0.00 0.00 25 1022.1
20260510065436 57 312 10.0 12.0 0.00 0.00 0.00 25 1022.0
20260510064416 58 316 11.0 13.0 0.00 0.00 0.00 24 1021.9
20260510063416 58 314 9.0 11.0 0.00 0.00 0.00 23 1021.7
20260510062416 58 310 10.0 12.0 0.00 0.00 0.00 23 1021.6
20260510061416 58 311 8.0 10.0 0.00 0.00 0.00 24 1021.3
20260510060416 58 305 8.0 12.0 0.00 0.00 0.00 24 1021.1
20260510055435 59 308 8.0 10.0 0.00 0.00 0.00 23 1021.4
20260510054415 59 314 9.0 11.0 0.00 0.00 0.00 23 1021.2
20260510053415 59 314 9.0 12.0 0.00 0.00 0.00 22 1021.1
20260510052415 60 324 8.0 11.0 0.00 0.00 0.00 21 1021.1
20260510051415 60 338 6.0 8.0 0.00 0.00 0.00 21 1020.9
20260510050415 59 330 5.0 8.0 0.00 0.00 0.00 22 1020.5
20260510045415 59 319 6.0 9.0 0.00 0.00 0.00 22 1020.6
20260510044415 59 311 7.0 9.0 0.00 0.00 0.00 22 1020.4
20260510043415 59 311 7.0 9.0 0.00 0.00 0.00 22 1020.3
20260510042415 60 328 6.0 8.0 0.00 0.00 0.00 21 1020.3
20260510041415 59 313 6.0 8.0 0.00 0.00 0.00 22 1020.3
20260510040415 61 326 12.0 15.0 0.00 0.00 0.00 22 1020.4
20260510035415 61 318 8.0 10.0 0.00 0.00 0.00 22 1020.4
20260510034435 62 314 5.0 8.0 0.00 0.00 0.00 21 1020.2
20260510033415 62 312 7.0 10.0 0.00 0.00 0.00 20 1020.2
20260510032415 62 309 6.0 8.0 0.00 0.00 0.00 20 1020.1
20260510031435 62 312 8.0 11.0 0.00 0.00 0.00 20 1020.0
20260510030415 63 326 4.0 6.0 0.00 0.00 0.00 20 1019.7
20260510025417 65 355 3.0 4.0 0.00 0.00 0.00 17 1020.0
20260510024415 65 348 4.0 5.0 0.00 0.00 0.00 17 1019.9
20260510023417 65 11 4.0 7.0 0.00 0.00 0.00 17 1019.8
20260510022455 66 355 2.0 3.0 0.00 0.00 0.00 17 1020.1
20260510021417 66 36 3.0 5.0 0.00 0.00 0.00 16 1019.6
20260510020538 66 22 4.0 8.0 0.00 0.00 0.00 16 1019.6
20260510015417 67 34 4.0 6.0 0.00 0.00 0.00 17 1019.4
20260510014417 68 43 4.0 6.0 0.00 0.00 0.00 17 1019.4
20260510013417 68 45 6.0 9.0 0.00 0.00 0.00 16 1019.3
20260510012417 68 37 8.0 12.0 0.00 0.00 0.00 15 1019.5
20260510011417 69 50 5.0 8.0 0.00 0.00 0.00 15 1019.8
20260510010437 69 30 5.0 9.0 0.00 0.00 0.00 15 1019.8
20260510005417 69 358 11.0 14.0 0.00 0.00 0.00 16 1019.8
20260510004417 70 14 8.0 13.0 0.00 0.00 0.00 15 1019.8
20260510003417 70 40 7.0 12.0 0.00 0.00 0.00 15 1019.8
20260510002417 70 347 7.0 12.0 0.00 0.00 0.00 16 1019.8
20260510001416 70 39 10.0 13.0 0.00 0.00 0.00 15 1020.1
20260510000418 70 27 7.0 16.0 0.00 0.00 0.00 15 1020.1
20260509235417 70 46 10.0 14.0 0.00 0.00 0.00 15 1020.0
20260509234417 70 26 12.0 18.0 0.00 0.00 0.00 15 1020.1
20260509233437 70 50 11.0 15.0 0.00 0.00 0.00 15 1020.0
20260509232416 70 12 10.0 15.0 0.00 0.00 0.00 16 1020.0
20260509231416 69 42 15.0 21.0 0.00 0.00 0.00 17 1020.1
20260509230416 69 9 9.0 27.0 0.00 0.00 0.00 17 1020.1
20260509225416 70 23 15.0 19.0 0.00 0.00 0.00 17 1020.0
20260509224436 69 2 12.0 22.0 0.00 0.00 0.00 16 1020.0
20260509223416 70 0 16.0 27.0 0.00 0.00 0.00 16 1020.0
20260509222416 70 15 10.0 18.0 0.00 0.00 0.00 17 1020.0
20260509221416 70 28 15.0 22.0 0.00 0.00 0.00 17 1020.5
20260509220416 69 36 7.0 12.0 0.00 0.00 0.00 19 1020.6
20260509215416 69 352 13.0 20.0 0.00 0.00 0.00 19 1020.8
20260509214416 69 11 6.0 12.0 0.00 0.00 0.00 19 1020.8
20260509213416 69 19 6.0 13.0 0.00 0.00 0.00 18 1020.8
20260509212416 69 349 7.0 15.0 0.00 0.00 0.00 19 1020.8
20260509211436 69 353 10.0 17.0 0.00 0.00 0.00 22 1020.9
20260509210416 69 3 10.0 14.0 0.00 0.00 0.00 22 1020.9
20260509205416 69 337 7.0 12.0 0.00 0.00 0.00 22 1021.0
20260509204436 69 5 7.0 17.0 0.00 0.00 0.00 22 1021.4
20260509203416 70 315 8.0 15.0 0.00 0.00 0.00 21 1021.3
20260509202416 70 331 10.0 16.0 0.00 0.00 0.00 22 1021.3
20260509201416 69 340 10.0 13.0 0.00 0.00 0.00 22 1021.3
20260509200416 68 344 7.0 11.0 0.00 0.00 0.00 23 1021.0
20260509195416 69 2 7.0 19.0 0.00 0.00 0.00 23 1021.5